Time,TemperatureF,DewpointF,PressureIn,WindDirection,WindDirectionDegrees,WindSpeedMPH,WindSpeedGustMPH,Humidity,HourlyPrecipIn,Conditions,Clouds,dailyrainin,SoftwareType,DateUTC
2013-05-17 00:00:00,56.7,48.0,29.84,West,273,0.0,0.0,73,0.00,,,0.00,meteobridge,2013-05-17 04:00:00,
2013-05-17 00:01:00,56.7,48.0,29.84,West,273,0.0,0.0,73,0.00,,,0.00,meteobridge,2013-05-17 04:01:00,
2013-05-17 00:02:00,56.7,48.0,29.84,West,273,0.0,0.0,73,0.00,,,0.00,meteobridge,2013-05-17 04:02:00,
2013-05-17 00:08:00,56.5,47.1,29.84,West,273,0.0,0.0,71,0.00,,,0.00,meteobridge,2013-05-17 04:08:00,
2013-05-17 00:11:00,56.5,47.1,29.84,West,273,0.0,0.0,71,0.00,,,0.00,meteobridge,2013-05-17 04:11:00,
2013-05-17 00:16:00,56.3,46.9,29.84,West,273,0.0,0.0,71,0.00,,,0.00,meteobridge,2013-05-17 04:16:00,
2013-05-17 00:21:00,56.1,47.7,29.84,West,273,0.0,0.9,73,0.00,,,0.00,meteobridge,2013-05-17 04:21:00,
2013-05-17 00:27:00,56.1,47.3,29.84,West,273,0.0,0.0,72,0.00,,,0.00,meteobridge,2013-05-17 04:27:00,
2013-05-17 00:33:00,55.9,47.1,29.84,West,273,0.0,0.0,72,0.00,,,0.00,meteobridge,2013-05-17 04:33:00,
2013-05-17 00:38:00,55.8,46.6,29.84,West,273,0.0,2.0,71,0.00,,,0.00,meteobridge,2013-05-17 04:38:00,
2013-05-17 00:43:00,55.6,46.4,29.85,West,273,0.0,0.0,71,0.00,,,0.00,meteobridge,2013-05-17 04:43:00,
2013-05-17 00:48:00,55.4,46.2,29.85,West,273,0.0,0.0,71,0.00,,,0.00,meteobridge,2013-05-17 04:48:00,
2013-05-17 00:54:00,55.0,45.9,29.85,West,273,0.0,2.0,71,0.00,,,0.00,meteobridge,2013-05-17 04:54:00,
2013-05-17 00:59:00,55.0,46.6,29.85,West,273,0.0,0.9,73,0.00,,,0.00,meteobridge,2013-05-17 04:59:00,
2013-05-17 01:04:00,54.9,46.4,29.85,West,273,0.0,0.0,73,0.00,,,0.00,meteobridge,2013-05-17 05:04:00,
2013-05-17 01:10:00,54.7,46.2,29.85,West,273,0.0,0.0,73,0.00,,,0.00,meteobridge,2013-05-17 05:10:00,
2013-05-17 01:15:00,54.7,46.9,29.85,West,273,0.0,0.0,75,0.00,,,0.00,meteobridge,2013-05-17 05:15:00,
2013-05-17 01:21:00,54.3,46.6,29.85,West,273,0.0,0.0,75,0.00,,,0.00,meteobridge,2013-05-17 05:21:00,
2013-05-17 01:26:00,54.1,46.4,29.86,West,273,0.0,0.0,75,0.00,,,0.00,meteobridge,2013-05-17 05:26:00,
2013-05-17 01:31:00,53.8,45.7,29.86,SW,225,0.0,2.0,74,0.00,,,0.00,meteobridge,2013-05-17 05:31:00,
2013-05-17 01:36:00,53.8,45.7,29.86,SW,225,0.9,2.0,74,0.00,,,0.00,meteobridge,2013-05-17 05:36:00,
2013-05-17 01:42:00,53.6,45.9,29.86,SW,224,0.0,0.9,75,0.00,,,0.00,meteobridge,2013-05-17 05:42:00,
2013-05-17 01:47:00,53.4,45.3,29.87,SW,224,0.0,2.0,74,0.00,,,0.00,meteobridge,2013-05-17 05:47:00,
2013-05-17 01:52:00,53.2,45.5,29.87,SW,224,0.0,0.9,75,0.00,,,0.00,meteobridge,2013-05-17 05:52:00,
2013-05-17 01:58:00,53.2,45.5,29.87,SW,224,0.0,0.0,75,0.00,,,0.00,meteobridge,2013-05-17 05:58:00,
2013-05-17 02:03:00,53.1,45.3,29.88,SW,224,0.0,0.0,75,0.00,,,0.00,meteobridge,2013-05-17 06:03:00,
2013-05-17 02:08:00,53.1,44.6,29.88,SW,224,0.0,0.0,73,0.00,,,0.00,meteobridge,2013-05-17 06:08:00,
2013-05-17 02:13:00,53.1,43.5,29.88,SW,224,0.0,0.0,70,0.00,,,0.00,meteobridge,2013-05-17 06:13:00,
2013-05-17 02:19:00,53.2,43.7,29.88,SW,224,0.0,0.0,70,0.00,,,0.00,meteobridge,2013-05-17 06:19:00,
2013-05-17 02:24:00,53.4,43.9,29.88,SW,224,0.0,0.0,70,0.00,,,0.00,meteobridge,2013-05-17 06:24:00,
2013-05-17 02:30:00,53.4,44.2,29.88,SW,224,0.0,0.0,71,0.00,,,0.00,meteobridge,2013-05-17 06:30:00,
2013-05-17 02:35:00,53.4,44.2,29.88,SW,224,0.0,0.0,71,0.00,,,0.00,meteobridge,2013-05-17 06:35:00,
2013-05-17 02:41:00,53.2,44.1,29.88,SW,224,0.0,0.0,71,0.00,,,0.00,meteobridge,2013-05-17 06:41:00,
2013-05-17 02:46:00,53.1,43.9,29.88,SW,224,0.0,0.0,71,0.00,,,0.00,meteobridge,2013-05-17 06:46:00,
2013-05-17 02:51:00,52.9,43.7,29.89,SW,224,0.9,0.9,71,0.00,,,0.00,meteobridge,2013-05-17 06:51:00,
2013-05-17 02:56:00,52.7,43.9,29.89,SW,224,0.0,0.0,72,0.00,,,0.00,meteobridge,2013-05-17 06:56:00,
2013-05-17 03:01:00,52.5,44.1,29.90,SW,224,0.0,0.0,73,0.00,,,0.00,meteobridge,2013-05-17 07:01:00,
2013-05-17 03:06:00,52.2,43.7,29.90,SW,224,0.0,0.9,73,0.00,,,0.00,meteobridge,2013-05-17 07:06:00,
2013-05-17 03:12:00,52.0,43.5,29.89,SW,224,2.0,2.0,73,0.00,,,0.00,meteobridge,2013-05-17 07:12:00,
2013-05-17 03:17:00,52.0,43.9,29.90,SSW,211,0.0,0.0,74,0.00,,,0.00,meteobridge,2013-05-17 07:17:00,
2013-05-17 03:23:00,51.8,43.3,29.91,SSW,211,0.0,0.0,73,0.00,,,0.00,meteobridge,2013-05-17 07:23:00,
2013-05-17 03:28:00,51.6,43.5,29.91,SSW,211,0.0,0.0,74,0.00,,,0.00,meteobridge,2013-05-17 07:28:00,
2013-05-17 03:33:00,51.3,43.3,29.91,SSW,211,0.0,0.0,74,0.00,,,0.00,meteobridge,2013-05-17 07:33:00,
2013-05-17 03:38:00,51.1,43.2,29.91,SSW,211,0.0,0.0,74,0.00,,,0.00,meteobridge,2013-05-17 07:38:00,
2013-05-17 03:44:00,50.9,43.3,29.91,SSW,211,0.0,0.0,75,0.00,,,0.00,meteobridge,2013-05-17 07:44:00,
2013-05-17 03:49:00,50.7,43.5,29.91,SSW,211,0.0,0.0,76,0.00,,,0.00,meteobridge,2013-05-17 07:49:00,
2013-05-17 03:54:00,50.5,41.9,29.92,SW,219,0.0,0.9,72,0.00,,,0.00,meteobridge,2013-05-17 07:54:00,
2013-05-17 03:59:00,50.5,41.2,29.92,SW,219,0.0,0.0,70,0.00,,,0.00,meteobridge,2013-05-17 07:59:00,
2013-05-17 04:04:00,50.7,41.4,29.92,West,278,0.0,0.9,70,0.00,,,0.00,meteobridge,2013-05-17 08:04:00,
2013-05-17 04:10:00,51.1,40.8,29.93,West,278,0.0,0.0,68,0.00,,,0.00,meteobridge,2013-05-17 08:10:00,
2013-05-17 04:15:00,51.4,40.8,29.93,SW,229,0.9,4.0,67,0.00,,,0.00,meteobridge,2013-05-17 08:15:00,
2013-05-17 04:20:00,52.2,41.5,29.93,SW,229,0.0,0.0,67,0.00,,,0.00,meteobridge,2013-05-17 08:20:00,
2013-05-17 04:26:00,52.3,41.4,29.93,SW,229,0.0,0.0,66,0.00,,,0.00,meteobridge,2013-05-17 08:26:00,
2013-05-17 04:31:00,52.5,41.5,29.94,SW,229,0.0,0.0,66,0.00,,,0.00,meteobridge,2013-05-17 08:31:00,
2013-05-17 04:37:00,52.5,41.5,29.94,SW,229,0.0,0.0,66,0.00,,,0.00,meteobridge,2013-05-17 08:37:00,
2013-05-17 04:42:00,52.5,41.5,29.95,SW,229,0.0,0.0,66,0.00,,,0.00,meteobridge,2013-05-17 08:42:00,
2013-05-17 04:48:00,52.5,41.9,29.95,SW,229,0.0,0.0,67,0.00,,,0.00,meteobridge,2013-05-17 08:48:00,
2013-05-17 04:53:00,52.7,41.7,29.95,NW,322,0.9,2.0,66,0.00,,,0.00,meteobridge,2013-05-17 08:53:00,
2013-05-17 04:59:00,53.1,42.1,29.95,NW,322,0.0,0.9,66,0.00,,,0.00,meteobridge,2013-05-17 08:59:00,
2013-05-17 05:04:00,53.2,41.7,29.96,NW,322,0.0,0.0,65,0.00,,,0.00,meteobridge,2013-05-17 09:04:00,
2013-05-17 05:09:00,53.2,41.7,29.96,NW,322,0.0,0.9,65,0.00,,,0.00,meteobridge,2013-05-17 09:09:00,
2013-05-17 05:15:00,53.4,41.9,29.96,NW,315,0.0,0.0,65,0.00,,,0.00,meteobridge,2013-05-17 09:15:00,
2013-05-17 05:20:00,53.4,41.9,29.97,NW,315,0.0,0.0,65,0.00,,,0.00,meteobridge,2013-05-17 09:20:00,
2013-05-17 05:25:00,53.4,42.3,29.97,NW,315,0.0,0.0,66,0.00,,,0.00,meteobridge,2013-05-17 09:25:00,
2013-05-17 05:31:00,53.4,41.9,29.97,NW,315,0.0,0.0,65,0.00,,,0.00,meteobridge,2013-05-17 09:31:00,
2013-05-17 05:36:00,53.2,41.7,29.97,NW,315,0.0,0.0,65,0.00,,,0.00,meteobridge,2013-05-17 09:36:00,
2013-05-17 05:41:00,53.1,42.4,29.98,NW,313,0.0,0.9,67,0.00,,,0.00,meteobridge,2013-05-17 09:41:00,
2013-05-17 05:47:00,52.9,42.3,29.98,NW,313,0.0,0.0,67,0.00,,,0.00,meteobridge,2013-05-17 09:47:00,
2013-05-17 05:52:00,52.7,42.1,29.98,NW,313,0.9,0.9,67,0.00,,,0.00,meteobridge,2013-05-17 09:52:00,
2013-05-17 05:57:00,52.7,41.7,29.99,NW,313,0.0,0.9,66,0.00,,,0.00,meteobridge,2013-05-17 09:57:00,
2013-05-17 06:02:00,52.9,42.3,29.99,NW,313,0.0,0.0,67,0.00,,,0.00,meteobridge,2013-05-17 10:02:00,
2013-05-17 06:07:00,52.7,42.1,29.99,NW,313,0.0,0.0,67,0.00,,,0.00,meteobridge,2013-05-17 10:07:00,
2013-05-17 06:13:00,52.7,41.7,29.99,NW,313,0.0,0.0,66,0.00,,,0.00,meteobridge,2013-05-17 10:13:00,
2013-05-17 06:18:00,52.5,42.6,29.99,NW,313,0.0,0.0,69,0.00,,,0.00,meteobridge,2013-05-17 10:18:00,
2013-05-17 06:23:00,52.3,41.7,29.99,NW,313,0.0,0.9,67,0.00,,,0.00,meteobridge,2013-05-17 10:23:00,
2013-05-17 06:29:00,52.3,42.1,29.99,NW,313,0.0,0.0,68,0.00,,,0.00,meteobridge,2013-05-17 10:29:00,
2013-05-17 06:34:00,52.3,41.7,29.99,NW,313,0.0,0.9,67,0.00,,,0.00,meteobridge,2013-05-17 10:34:00,
2013-05-17 06:39:00,52.5,41.5,29.99,NW,312,0.0,0.9,66,0.00,,,0.00,meteobridge,2013-05-17 10:39:00,
2013-05-17 06:45:00,52.7,41.2,29.99,NW,311,0.0,2.0,65,0.00,,,0.00,meteobridge,2013-05-17 10:45:00,
2013-05-17 06:51:00,52.9,41.0,29.99,NW,307,0.9,2.0,64,0.00,,,0.00,meteobridge,2013-05-17 10:51:00,
2013-05-17 06:56:00,53.1,40.8,29.99,NW,315,0.0,2.0,63,0.00,,,0.00,meteobridge,2013-05-17 10:56:00,
2013-05-17 07:01:00,53.4,41.2,29.99,NW,305,0.0,0.0,63,0.00,,,0.00,meteobridge,2013-05-17 11:01:00,
2013-05-17 07:06:00,53.4,40.3,29.99,NW,305,0.0,2.0,61,0.00,,,0.00,meteobridge,2013-05-17 11:06:00,
2013-05-17 07:11:00,53.8,40.6,30.00,NW,322,0.9,2.0,61,0.00,,,0.00,meteobridge,2013-05-17 11:11:00,
2013-05-17 07:17:00,54.0,40.5,30.00,WNW,298,0.0,2.0,60,0.00,,,0.00,meteobridge,2013-05-17 11:17:00,
2013-05-17 07:22:00,54.1,40.6,30.00,NW,323,0.0,2.0,60,0.00,,,0.00,meteobridge,2013-05-17 11:22:00,
2013-05-17 07:27:00,54.5,40.1,30.00,North,351,2.0,2.9,58,0.00,,,0.00,meteobridge,2013-05-17 11:27:00,
2013-05-17 07:33:00,54.9,40.3,30.01,NW,305,0.0,2.0,58,0.00,,,0.00,meteobridge,2013-05-17 11:33:00,
2013-05-17 07:38:00,54.9,40.3,30.01,NW,311,0.9,2.0,58,0.00,,,0.00,meteobridge,2013-05-17 11:38:00,
2013-05-17 07:44:00,55.0,40.5,30.01,NW,311,0.0,2.0,58,0.00,,,0.00,meteobridge,2013-05-17 11:44:00,
2013-05-17 07:49:00,55.0,41.0,30.02,NW,311,0.0,0.9,59,0.00,,,0.00,meteobridge,2013-05-17 11:49:00,
2013-05-17 07:54:00,55.2,40.3,30.03,NW,319,0.0,2.0,57,0.00,,,0.00,meteobridge,2013-05-17 11:54:00,
2013-05-17 07:59:00,55.2,39.7,30.03,NW,325,0.9,2.0,56,0.00,,,0.00,meteobridge,2013-05-17 11:59:00,
2013-05-17 08:05:00,55.6,39.7,30.04,NW,306,0.9,2.9,55,0.00,,,0.00,meteobridge,2013-05-17 12:05:00,
2013-05-17 08:10:00,55.8,39.4,30.03,NW,325,2.9,2.9,54,0.00,,,0.00,meteobridge,2013-05-17 12:10:00,
2013-05-17 08:15:00,55.8,39.4,30.03,NW,311,4.0,4.9,54,0.00,,,0.00,meteobridge,2013-05-17 12:15:00,
2013-05-17 08:21:00,55.9,39.6,30.03,NNW,332,2.0,2.0,54,0.00,,,0.00,meteobridge,2013-05-17 12:21:00,
2013-05-17 08:26:00,55.9,39.9,30.04,ENE,77,0.0,2.9,55,0.00,,,0.00,meteobridge,2013-05-17 12:26:00,
2013-05-17 08:31:00,56.1,40.6,30.04,NW,319,0.0,2.0,56,0.00,,,0.00,meteobridge,2013-05-17 12:31:00,
2013-05-17 08:36:00,56.1,40.1,30.05,NW,325,0.0,2.9,55,0.00,,,0.00,meteobridge,2013-05-17 12:36:00,
2013-05-17 08:42:00,56.3,40.3,30.05,NW,309,0.9,2.0,55,0.00,,,0.00,meteobridge,2013-05-17 12:42:00,
2013-05-17 08:47:00,56.3,40.3,30.05,NW,321,0.9,4.9,55,0.00,,,0.00,meteobridge,2013-05-17 12:47:00,
2013-05-17 08:52:00,56.1,39.7,30.05,WNW,296,0.9,6.0,54,0.00,,,0.00,meteobridge,2013-05-17 12:52:00,
2013-05-17 08:58:00,56.3,40.3,30.05,NNW,348,2.0,6.0,55,0.00,,,0.00,meteobridge,2013-05-17 12:58:00,
2013-05-17 09:03:00,56.5,40.1,30.05,West,281,4.0,4.0,54,0.00,,,0.00,meteobridge,2013-05-17 13:03:00,
2013-05-17 09:08:00,56.3,39.9,30.05,NNW,334,0.9,4.9,54,0.00,,,0.00,meteobridge,2013-05-17 13:08:00,
2013-05-17 09:14:00,56.3,40.8,30.05,WNW,286,2.0,2.9,56,0.00,,,0.00,meteobridge,2013-05-17 13:14:00,
2013-05-17 09:19:00,56.3,39.9,30.05,NW,312,0.0,2.9,54,0.00,,,0.00,meteobridge,2013-05-17 13:19:00,
2013-05-17 09:24:00,56.5,40.5,30.06,NNW,334,0.9,2.0,55,0.00,,,0.00,meteobridge,2013-05-17 13:24:00,
2013-05-17 09:30:00,56.5,39.6,30.06,West,279,0.0,2.9,53,0.00,,,0.00,meteobridge,2013-05-17 13:30:00,
2013-05-17 09:35:00,56.5,40.1,30.06,North,9,0.9,2.0,54,0.00,,,0.00,meteobridge,2013-05-17 13:35:00,
2013-05-17 09:41:00,56.7,41.2,30.06,NNW,329,0.0,0.9,56,0.00,,,0.00,meteobridge,2013-05-17 13:41:00,
2013-05-17 09:46:00,56.8,40.5,30.06,NW,316,0.0,2.0,54,0.00,,,0.00,meteobridge,2013-05-17 13:46:00,
2013-05-17 09:52:00,57.0,41.0,30.06,NNE,12,0.9,2.9,55,0.00,,,0.00,meteobridge,2013-05-17 13:52:00,
2013-05-17 09:57:00,57.2,41.2,30.06,WNW,303,0.9,2.0,55,0.00,,,0.00,meteobridge,2013-05-17 13:57:00,
2013-05-17 10:02:00,57.4,39.9,30.06,NW,321,0.9,4.0,52,0.00,,,0.00,meteobridge,2013-05-17 14:02:00,
2013-05-17 10:07:00,57.4,40.8,30.06,NNW,328,2.0,2.0,54,0.00,,,0.00,meteobridge,2013-05-17 14:07:00,
2013-05-17 10:12:00,57.7,41.2,30.06,NW,321,0.0,2.9,54,0.00,,,0.00,meteobridge,2013-05-17 14:12:00,
2013-05-17 10:17:00,57.9,41.4,30.06,North,5,0.9,2.0,54,0.00,,,0.00,meteobridge,2013-05-17 14:17:00,
2013-05-17 10:23:00,58.3,40.8,30.06,South,175,0.0,0.9,52,0.00,,,0.00,meteobridge,2013-05-17 14:23:00,
2013-05-17 10:28:00,58.5,40.8,30.06,NNW,334,2.0,2.9,52,0.00,,,0.00,meteobridge,2013-05-17 14:28:00,
2013-05-17 10:33:00,58.6,40.6,30.07,NW,312,2.0,4.0,51,0.00,,,0.00,meteobridge,2013-05-17 14:33:00,
2013-05-17 10:39:00,58.6,40.6,30.07,NNW,346,0.9,2.0,51,0.00,,,0.00,meteobridge,2013-05-17 14:39:00,
2013-05-17 10:44:00,58.8,40.8,30.07,NW,321,0.0,4.0,51,0.00,,,0.00,meteobridge,2013-05-17 14:44:00,
2013-05-17 10:50:00,58.8,40.8,30.07,NNW,327,2.0,2.0,51,0.00,,,0.00,meteobridge,2013-05-17 14:50:00,
2013-05-17 10:55:00,59.2,40.6,30.07,NNE,16,2.9,4.0,50,0.00,,,0.00,meteobridge,2013-05-17 14:55:00,
2013-05-17 11:00:00,59.4,40.3,30.07,North,0,2.0,4.9,49,0.00,,,0.00,meteobridge,2013-05-17 15:00:00,
2013-05-17 11:05:00,59.2,40.1,30.08,NW,321,0.9,4.0,49,0.00,,,0.00,meteobridge,2013-05-17 15:05:00,
2013-05-17 11:10:00,59.4,40.6,30.07,NW,308,2.0,4.0,50,0.00,,,0.00,meteobridge,2013-05-17 15:10:00,
2013-05-17 11:16:00,59.4,40.3,30.07,NNW,332,0.0,4.9,49,0.00,,,0.00,meteobridge,2013-05-17 15:16:00,
2013-05-17 11:21:00,59.5,40.3,30.07,North,0,0.0,2.0,49,0.00,,,0.00,meteobridge,2013-05-17 15:21:00,
2013-05-17 11:26:00,59.5,40.3,30.07,NNW,331,0.9,2.9,49,0.00,,,0.00,meteobridge,2013-05-17 15:26:00,
2013-05-17 11:32:00,59.9,40.6,30.07,NW,319,2.0,4.0,49,0.00,,,0.00,meteobridge,2013-05-17 15:32:00,
2013-05-17 11:37:00,60.1,41.4,30.07,NNE,12,2.0,2.0,50,0.00,,,0.00,meteobridge,2013-05-17 15:37:00,
2013-05-17 11:43:00,60.1,41.9,30.07,WNW,289,2.9,4.0,51,0.00,,,0.00,meteobridge,2013-05-17 15:43:00,
2013-05-17 11:48:00,60.1,40.3,30.07,NNE,21,2.0,2.0,48,0.00,,,0.00,meteobridge,2013-05-17 15:48:00,
2013-05-17 11:53:00,60.3,42.1,30.07,NW,311,0.0,2.9,51,0.00,,,0.00,meteobridge,2013-05-17 15:53:00,
2013-05-17 11:59:00,60.4,41.2,30.07,SSE,159,2.0,2.0,49,0.00,,,0.00,meteobridge,2013-05-17 15:59:00,
2013-05-17 12:04:00,60.6,40.8,30.07,NW,317,0.9,4.0,48,0.00,,,0.00,meteobridge,2013-05-17 16:04:00,
2013-05-17 12:09:00,60.8,42.1,30.08,WNW,299,0.0,2.0,50,0.00,,,0.00,meteobridge,2013-05-17 16:09:00,
2013-05-17 12:14:00,61.0,40.6,30.08,WNW,298,2.0,4.0,47,0.00,,,0.00,meteobridge,2013-05-17 16:14:00,
2013-05-17 12:20:00,61.0,42.3,30.07,WNW,302,0.9,2.0,50,0.00,,,0.00,meteobridge,2013-05-17 16:20:00,
2013-05-17 12:25:00,61.3,42.6,30.07,NNW,333,0.9,2.0,50,0.00,,,0.00,meteobridge,2013-05-17 16:25:00,
2013-05-17 12:30:00,61.9,41.9,30.07,North,5,0.0,0.0,48,0.00,,,0.00,meteobridge,2013-05-17 16:30:00,
2013-05-17 12:35:00,62.2,42.3,30.07,NNW,341,0.0,2.9,48,0.00,,,0.00,meteobridge,2013-05-17 16:35:00,
2013-05-17 12:41:00,62.8,41.7,30.07,NNW,341,2.0,2.0,46,0.00,,,0.00,meteobridge,2013-05-17 16:41:00,
2013-05-17 12:46:00,63.1,41.5,30.07,WNW,303,0.0,0.9,45,0.00,,,0.00,meteobridge,2013-05-17 16:46:00,
2013-05-17 12:51:00,63.9,42.6,30.07,NW,305,0.9,0.9,46,0.00,,,0.00,meteobridge,2013-05-17 16:51:00,
2013-05-17 12:57:00,64.8,44.1,30.06,SSW,206,0.0,0.9,47,0.00,,,0.00,meteobridge,2013-05-17 16:57:00,
2013-05-17 13:02:00,65.5,41.7,30.07,North,351,0.0,0.9,42,0.00,,,0.00,meteobridge,2013-05-17 17:02:00,
2013-05-17 13:07:00,66.4,41.9,30.07,WNW,302,0.0,2.0,41,0.00,,,0.00,meteobridge,2013-05-17 17:07:00,
2013-05-17 13:12:00,67.3,44.1,30.07,NNW,338,0.9,2.9,43,0.00,,,0.00,meteobridge,2013-05-17 17:12:00,
2013-05-17 13:17:00,68.4,43.2,30.07,North,5,0.9,2.0,40,0.00,,,0.00,meteobridge,2013-05-17 17:17:00,
2013-05-17 13:23:00,69.4,43.3,30.07,NNW,342,0.9,2.9,39,0.00,,,0.00,meteobridge,2013-05-17 17:23:00,
2013-05-17 13:28:00,70.3,42.1,30.07,NNE,19,0.9,2.9,36,0.00,,,0.00,meteobridge,2013-05-17 17:28:00,
2013-05-17 13:33:00,71.1,42.8,30.07,NW,306,2.0,2.9,36,0.00,,,0.00,meteobridge,2013-05-17 17:33:00,
2013-05-17 13:38:00,71.2,41.4,30.07,North,5,0.0,2.9,34,0.00,,,0.00,meteobridge,2013-05-17 17:38:00,
2013-05-17 13:44:00,71.4,40.8,30.08,North,11,0.9,2.0,33,0.00,,,0.00,meteobridge,2013-05-17 17:44:00,
2013-05-17 13:49:00,71.2,39.9,30.08,NNE,13,4.0,4.0,32,0.00,,,0.00,meteobridge,2013-05-17 17:49:00,
2013-05-17 13:55:00,71.1,41.4,30.08,North,355,0.0,2.9,34,0.00,,,0.00,meteobridge,2013-05-17 17:55:00,
2013-05-17 14:00:00,71.6,41.7,30.08,NW,323,4.0,6.0,34,0.00,,,0.00,meteobridge,2013-05-17 18:00:00,
2013-05-17 14:05:00,72.0,42.8,30.08,NNW,334,2.0,4.9,35,0.00,,,0.00,meteobridge,2013-05-17 18:05:00,
2013-05-17 14:10:00,71.8,41.2,30.08,NW,308,2.0,6.0,33,0.00,,,0.00,meteobridge,2013-05-17 18:10:00,
2013-05-17 14:15:00,71.6,41.0,30.08,NNE,15,0.9,2.9,33,0.00,,,0.00,meteobridge,2013-05-17 18:15:00,
2013-05-17 14:20:00,71.8,39.6,30.08,WNW,292,4.9,4.9,31,0.00,,,0.00,meteobridge,2013-05-17 18:20:00,
2013-05-17 14:25:00,72.0,38.8,30.08,NNW,344,0.9,4.0,30,0.00,,,0.00,meteobridge,2013-05-17 18:25:00,
2013-05-17 14:31:00,72.3,41.5,30.08,NW,309,0.0,2.0,33,0.00,,,0.00,meteobridge,2013-05-17 18:31:00,
2013-05-17 14:36:00,72.5,41.7,30.08,NW,309,2.0,4.9,33,0.00,,,0.00,meteobridge,2013-05-17 18:36:00,
2013-05-17 14:41:00,72.5,41.0,30.08,North,0,2.0,2.9,32,0.00,,,0.00,meteobridge,2013-05-17 18:41:00,
2013-05-17 14:46:00,72.7,40.3,30.08,NW,315,0.9,4.0,31,0.00,,,0.00,meteobridge,2013-05-17 18:46:00,
2013-05-17 14:52:00,72.9,41.4,30.08,NW,324,0.9,2.9,32,0.00,,,0.00,meteobridge,2013-05-17 18:52:00,
2013-05-17 14:57:00,73.0,40.6,30.08,SSE,150,2.0,2.9,31,0.00,,,0.00,meteobridge,2013-05-17 18:57:00,
2013-05-17 15:03:00,72.9,42.1,30.08,WNW,303,0.0,2.0,33,0.00,,,0.00,meteobridge,2013-05-17 19:03:00,
2013-05-17 15:08:00,73.2,39.0,30.08,NW,313,0.9,2.9,29,0.00,,,0.00,meteobridge,2013-05-17 19:08:00,
2013-05-17 15:13:00,73.2,40.8,30.08,WNW,297,6.9,6.9,31,0.00,,,0.00,meteobridge,2013-05-17 19:13:00,
2013-05-17 15:19:00,73.0,40.6,30.08,North,349,0.0,0.9,31,0.00,,,0.00,meteobridge,2013-05-17 19:19:00,
2013-05-17 15:24:00,73.2,39.9,30.08,WNW,284,2.0,4.0,30,0.00,,,0.00,meteobridge,2013-05-17 19:24:00,
2013-05-17 15:29:00,73.2,39.9,30.08,WNW,286,2.0,4.9,30,0.00,,,0.00,meteobridge,2013-05-17 19:29:00,
2013-05-17 15:35:00,73.0,38.8,30.08,NNE,31,0.9,2.9,29,0.00,,,0.00,meteobridge,2013-05-17 19:35:00,
2013-05-17 15:40:00,72.9,39.6,30.08,NE,53,0.9,0.9,30,0.00,,,0.00,meteobridge,2013-05-17 19:40:00,
2013-05-17 15:45:00,72.9,39.6,30.08,NNW,329,0.0,0.9,30,0.00,,,0.00,meteobridge,2013-05-17 19:45:00,
2013-05-17 15:50:00,72.7,40.3,30.08,NNW,337,0.0,2.0,31,0.00,,,0.00,meteobridge,2013-05-17 19:50:00,
2013-05-17 15:56:00,72.1,39.9,30.08,NNE,13,2.9,2.9,31,0.00,,,0.00,meteobridge,2013-05-17 19:56:00,
2013-05-17 16:01:00,71.8,39.6,30.08,NNE,22,2.0,2.0,31,0.00,,,0.00,meteobridge,2013-05-17 20:01:00,
2013-05-17 16:06:00,71.2,41.4,30.08,NNW,327,0.0,0.9,34,0.00,,,0.00,meteobridge,2013-05-17 20:06:00,
2013-05-17 16:11:00,70.9,38.7,30.08,North,355,0.9,2.0,31,0.00,,,0.00,meteobridge,2013-05-17 20:11:00,
2013-05-17 16:16:00,70.5,40.8,30.08,NE,44,0.9,2.9,34,0.00,,,0.00,meteobridge,2013-05-17 20:16:00,
2013-05-17 16:21:00,70.2,40.5,30.08,NNW,344,0.9,2.0,34,0.00,,,0.00,meteobridge,2013-05-17 20:21:00,
2013-05-17 16:27:00,69.6,39.9,30.08,NE,51,0.0,2.9,34,0.00,,,0.00,meteobridge,2013-05-17 20:27:00,
2013-05-17 16:32:00,69.4,40.6,30.08,ENE,59,0.0,2.0,35,0.00,,,0.00,meteobridge,2013-05-17 20:32:00,
2013-05-17 16:37:00,69.3,39.7,30.09,North,5,0.0,2.9,34,0.00,,,0.00,meteobridge,2013-05-17 20:37:00,
2013-05-17 16:43:00,69.1,39.6,30.09,NNE,26,0.0,2.0,34,0.00,,,0.00,meteobridge,2013-05-17 20:43:00,
2013-05-17 16:48:00,69.1,41.0,30.09,NNW,329,0.9,2.9,36,0.00,,,0.00,meteobridge,2013-05-17 20:48:00,
2013-05-17 16:53:00,69.3,41.2,30.09,NW,319,2.0,2.0,36,0.00,,,0.00,meteobridge,2013-05-17 20:53:00,
2013-05-17 16:58:00,69.1,38.8,30.09,NNE,19,0.0,2.0,33,0.00,,,0.00,meteobridge,2013-05-17 20:58:00,
2013-05-17 17:03:00,69.1,39.6,30.09,SE,134,0.0,2.0,34,0.00,,,0.00,meteobridge,2013-05-17 21:03:00,
2013-05-17 17:08:00,69.1,41.0,30.09,NW,304,2.0,2.9,36,0.00,,,0.00,meteobridge,2013-05-17 21:08:00,
2013-05-17 17:14:00,69.1,40.3,30.10,NNW,344,0.0,2.0,35,0.00,,,0.00,meteobridge,2013-05-17 21:14:00,
2013-05-17 17:19:00,68.9,38.7,30.10,North,5,0.0,2.0,33,0.00,,,0.00,meteobridge,2013-05-17 21:19:00,
2013-05-17 17:24:00,68.7,39.9,30.10,NNE,16,0.9,2.0,35,0.00,,,0.00,meteobridge,2013-05-17 21:24:00,
2013-05-17 17:30:00,68.5,39.0,30.11,NNE,28,0.0,2.0,34,0.00,,,0.00,meteobridge,2013-05-17 21:30:00,
2013-05-17 17:35:00,68.2,39.6,30.11,South,177,0.0,0.9,35,0.00,,,0.00,meteobridge,2013-05-17 21:35:00,
2013-05-17 17:41:00,68.0,40.1,30.11,SSW,198,0.0,0.0,36,0.00,,,0.00,meteobridge,2013-05-17 21:41:00,
2013-05-17 17:47:00,67.8,39.9,30.11,SSW,198,0.0,0.9,36,0.00,,,0.00,meteobridge,2013-05-17 21:47:00,
2013-05-17 17:52:00,67.6,39.7,30.11,SSW,207,0.0,2.0,36,0.00,,,0.00,meteobridge,2013-05-17 21:52:00,
2013-05-17 17:57:00,67.5,38.8,30.11,NNE,24,0.9,2.0,35,0.00,,,0.00,meteobridge,2013-05-17 21:57:00,
2013-05-17 18:02:00,67.1,39.2,30.11,North,5,0.0,0.9,36,0.00,,,0.00,meteobridge,2013-05-17 22:02:00,
2013-05-17 18:07:00,66.9,39.7,30.11,WNW,295,0.9,2.0,37,0.00,,,0.00,meteobridge,2013-05-17 22:07:00,
2013-05-17 18:12:00,66.7,38.3,30.11,NNW,330,0.0,0.9,35,0.00,,,0.00,meteobridge,2013-05-17 22:12:00,
2013-05-17 18:17:00,66.7,39.6,30.11,NNW,330,0.0,0.9,37,0.00,,,0.00,meteobridge,2013-05-17 22:17:00,
2013-05-17 18:22:00,66.6,39.6,30.11,NW,304,0.9,0.9,37,0.00,,,0.00,meteobridge,2013-05-17 22:22:00,
2013-05-17 18:28:00,66.4,38.7,30.12,WSW,256,0.0,0.9,36,0.00,,,0.00,meteobridge,2013-05-17 22:28:00,
2013-05-17 18:33:00,66.4,39.4,30.12,WSW,257,0.0,0.0,37,0.00,,,0.00,meteobridge,2013-05-17 22:33:00,
2013-05-17 18:39:00,66.2,40.5,30.12,WSW,257,0.0,0.0,39,0.00,,,0.00,meteobridge,2013-05-17 22:39:00,
2013-05-17 18:44:00,66.2,39.9,30.12,WSW,257,0.0,0.9,38,0.00,,,0.00,meteobridge,2013-05-17 22:44:00,
2013-05-17 18:49:00,66.2,39.9,30.12,WNW,290,0.0,0.0,38,0.00,,,0.00,meteobridge,2013-05-17 22:49:00,
2013-05-17 18:55:00,66.2,39.2,30.12,WNW,290,0.0,0.0,37,0.00,,,0.00,meteobridge,2013-05-17 22:55:00,
2013-05-17 19:00:00,66.0,39.0,30.13,WNW,290,0.0,0.0,37,0.00,,,0.00,meteobridge,2013-05-17 23:00:00,
2013-05-17 19:06:00,66.0,39.0,30.13,WNW,290,0.0,0.0,37,0.00,,,0.00,meteobridge,2013-05-17 23:06:00,
2013-05-17 19:11:00,65.8,39.6,30.13,WNW,290,0.0,0.9,38,0.00,,,0.00,meteobridge,2013-05-17 23:11:00,
2013-05-17 19:16:00,65.8,40.8,30.13,WNW,290,0.0,0.0,40,0.00,,,0.00,meteobridge,2013-05-17 23:16:00,
2013-05-17 19:21:00,65.7,40.6,30.14,WNW,290,0.0,0.0,40,0.00,,,0.00,meteobridge,2013-05-17 23:21:00,
2013-05-17 19:27:00,65.5,39.2,30.14,WNW,290,0.0,0.9,38,0.00,,,0.00,meteobridge,2013-05-17 23:27:00,
2013-05-17 19:32:00,65.3,40.3,30.14,WNW,290,0.0,0.0,40,0.00,,,0.00,meteobridge,2013-05-17 23:32:00,
2013-05-17 19:38:00,65.1,41.5,30.14,WNW,290,0.0,0.0,42,0.00,,,0.00,meteobridge,2013-05-17 23:38:00,
2013-05-17 19:44:00,64.8,42.3,30.14,WNW,290,0.0,0.0,44,0.00,,,0.00,meteobridge,2013-05-17 23:44:00,
2013-05-17 19:49:00,64.6,42.3,30.15,WNW,290,0.0,0.0,44,0.00,,,0.00,meteobridge,2013-05-17 23:49:00,
2013-05-17 19:55:00,64.2,42.4,30.15,WNW,290,0.0,0.9,45,0.00,,,0.00,meteobridge,2013-05-17 23:55:00,
2013-05-17 20:00:00,63.7,43.2,30.15,WNW,290,0.0,0.0,47,0.00,,,-99.99,meteobridge,2013-05-18 00:00:00,
2013-05-17 20:05:00,63.1,43.7,30.15,WNW,290,0.9,0.9,49,0.00,,,0.00,meteobridge,2013-05-18 00:05:00,
2013-05-17 20:10:00,62.6,43.2,30.15,WNW,290,0.9,0.9,49,0.00,,,0.00,meteobridge,2013-05-18 00:10:00,
2013-05-17 20:15:00,61.9,43.0,30.16,WNW,290,0.0,0.0,50,0.00,,,0.00,meteobridge,2013-05-18 00:15:00,
2013-05-17 20:21:00,61.3,43.5,30.16,WNW,290,0.9,0.9,52,0.00,,,0.00,meteobridge,2013-05-18 00:21:00,
2013-05-17 20:26:00,60.4,43.2,30.16,WNW,290,0.0,0.9,53,0.00,,,0.00,meteobridge,2013-05-18 00:26:00,
2013-05-17 20:32:00,59.7,43.0,30.16,WNW,290,0.9,0.9,54,0.00,,,0.00,meteobridge,2013-05-18 00:32:00,
2013-05-17 20:37:00,59.2,43.5,30.16,WNW,290,0.0,0.0,56,0.00,,,0.00,meteobridge,2013-05-18 00:37:00,
2013-05-17 20:43:00,58.5,44.2,30.16,WNW,290,0.0,0.0,59,0.00,,,0.00,meteobridge,2013-05-18 00:43:00,
2013-05-17 20:48:00,57.9,43.7,30.17,WNW,290,0.9,0.9,59,0.00,,,0.00,meteobridge,2013-05-18 00:48:00,
2013-05-17 20:53:00,57.4,44.1,30.17,WNW,290,0.0,0.0,61,0.00,,,0.00,meteobridge,2013-05-18 00:53:00,
2013-05-17 20:59:00,57.0,43.7,30.18,WNW,290,0.0,0.9,61,0.00,,,0.00,meteobridge,2013-05-18 00:59:00,
2013-05-17 21:04:00,56.7,44.2,30.18,West,270,0.0,0.9,63,0.00,,,0.00,meteobridge,2013-05-18 01:04:00,
2013-05-17 21:09:00,56.1,43.7,30.18,West,270,0.0,0.9,63,0.00,,,0.00,meteobridge,2013-05-18 01:09:00,
2013-05-17 21:15:00,55.9,44.4,30.18,West,270,0.0,0.0,65,0.00,,,0.00,meteobridge,2013-05-18 01:15:00,
2013-05-17 21:20:00,55.6,44.4,30.19,West,270,0.0,0.0,66,0.00,,,0.00,meteobridge,2013-05-18 01:20:00,
2013-05-17 21:25:00,55.2,43.7,30.19,West,270,0.0,0.0,65,0.00,,,0.00,meteobridge,2013-05-18 01:25:00,
2013-05-17 21:31:00,55.0,43.9,30.19,West,270,0.0,0.0,66,0.00,,,0.00,meteobridge,2013-05-18 01:31:00,
2013-05-17 21:37:00,54.9,43.7,30.19,West,270,0.0,0.0,66,0.00,,,0.00,meteobridge,2013-05-18 01:37:00,
2013-05-17 21:42:00,54.7,43.9,30.19,West,270,0.0,0.0,67,0.00,,,0.00,meteobridge,2013-05-18 01:42:00,
2013-05-17 21:47:00,54.7,44.2,30.19,West,270,0.0,0.0,68,0.00,,,0.00,meteobridge,2013-05-18 01:47:00,
2013-05-17 21:53:00,54.3,44.1,30.19,West,270,0.0,0.0,68,0.00,,,0.00,meteobridge,2013-05-18 01:53:00,
2013-05-17 21:58:00,54.0,44.1,30.20,West,270,0.0,0.0,69,0.00,,,0.00,meteobridge,2013-05-18 01:58:00,
2013-05-17 22:03:00,53.6,43.7,30.20,West,270,0.0,0.0,69,0.00,,,0.00,meteobridge,2013-05-18 02:03:00,
2013-05-17 22:09:00,53.2,43.7,30.20,West,270,0.0,0.0,70,0.00,,,0.00,meteobridge,2013-05-18 02:09:00,
2013-05-17 22:14:00,53.1,43.9,30.20,West,270,0.0,0.0,71,0.00,,,0.00,meteobridge,2013-05-18 02:14:00,
2013-05-17 22:20:00,52.9,43.7,30.20,West,270,0.0,0.0,71,0.00,,,0.00,meteobridge,2013-05-18 02:20:00,
2013-05-17 22:25:00,52.7,43.5,30.20,West,270,0.0,0.0,71,0.00,,,0.00,meteobridge,2013-05-18 02:25:00,
2013-05-17 22:30:00,52.5,44.1,30.20,West,270,0.0,0.0,73,0.00,,,0.00,meteobridge,2013-05-18 02:30:00,
2013-05-17 22:36:00,52.2,44.1,30.20,West,270,0.0,0.0,74,0.00,,,0.00,meteobridge,2013-05-18 02:36:00,
2013-05-17 22:41:00,52.0,43.9,30.20,West,270,0.0,0.0,74,0.00,,,0.00,meteobridge,2013-05-18 02:41:00,
2013-05-17 22:46:00,51.6,43.5,30.20,West,270,0.0,0.0,74,0.00,,,0.00,meteobridge,2013-05-18 02:46:00,
2013-05-17 22:52:00,51.4,43.5,30.20,West,270,0.0,0.0,74,0.00,,,0.00,meteobridge,2013-05-18 02:52:00,
2013-05-17 22:57:00,51.3,43.5,30.20,West,270,0.0,0.0,75,0.00,,,0.00,meteobridge,2013-05-18 02:57:00,
2013-05-17 23:02:00,51.3,43.5,30.20,West,270,0.0,0.0,75,0.00,,,0.00,meteobridge,2013-05-18 03:02:00,
2013-05-17 23:07:00,51.1,44.1,30.20,West,270,0.0,0.0,77,0.00,,,0.00,meteobridge,2013-05-18 03:07:00,
2013-05-17 23:12:00,51.1,44.1,30.21,West,270,0.0,0.0,77,0.00,,,0.00,meteobridge,2013-05-18 03:12:00,
2013-05-17 23:17:00,50.9,43.9,30.21,West,270,0.0,0.0,77,0.00,,,0.00,meteobridge,2013-05-18 03:17:00,
2013-05-17 23:23:00,50.7,43.5,30.21,West,270,0.0,0.0,76,0.00,,,0.00,meteobridge,2013-05-18 03:23:00,
2013-05-17 23:28:00,50.7,43.7,30.21,West,270,0.0,0.0,77,0.00,,,0.00,meteobridge,2013-05-18 03:28:00,
2013-05-17 23:33:00,50.5,43.5,30.21,West,270,0.0,0.0,77,0.00,,,0.00,meteobridge,2013-05-18 03:33:00,
2013-05-17 23:38:00,50.5,43.5,30.22,West,270,0.0,0.0,77,0.00,,,0.00,meteobridge,2013-05-18 03:38:00,
2013-05-17 23:44:00,50.5,43.5,30.22,West,270,0.0,0.0,77,0.00,,,0.00,meteobridge,2013-05-18 03:44:00,
2013-05-17 23:49:00,50.4,43.3,30.22,West,270,0.0,0.0,77,0.00,,,0.00,meteobridge,2013-05-18 03:49:00,
2013-05-17 23:55:00,50.4,43.3,30.22,West,270,0.0,0.0,77,0.00,,,0.00,meteobridge,2013-05-18 03:55:00,